Terminal Aerodrome Forecast
Issued by NWS

Home | Current Version | Previous Version | Text Only | Print | Product List | Glossary On
Versions: 1 2 3 4 5 6 7 8 9 10 11 12 13 14 15 16 17 18 19 20 21 22 23 24 25 26 27 28 29 30 31 32 33 34 35 36 37 38 39 40 41 42 43 44 45 46 47 48 49 50
000
FTUS41 KRNK 240310 AAC
TAFLWB
TAF AMD
KLWB 240310Z 2403/2424 00000KT 4SM -SHRA OVC035
      TEMPO 2403/2406 1SM +TSRA BR OVC030CB
     FM240600 VRB03KT 3SM BR BKN040
     FM241300 29003KT P6SM OVC050
     FM241400 29005KT P6SM VCTS BKN040CB
     FM241800 31007KT P6SM BKN050=

USA.gov is the U.S. government's official web portal to all federal, state and local government web resources and services.